Location: B�hl
(48.6968°N, 8.1352°E)
Time: 09:11:48
(UTC+00:00)

FALCON 9 DEB - Pass Details

Date: 08 March 2021
Orbit: 367 x 384 km, 53.0° (Epoch: 10 April)

Event Time Altitude Azimuth Distance (km) Brightness Sun altitude
Rises 18:13:36 0° 295° (WNW) 2,280 8.3 -9.3°
Reaches altitude 10° 18:15:40 10° 296° (WNW) 1,421 7.0 -9.6°
Maximum altitude 18:18:51 83° 22° (NNE) 395 2.8 -10.2°
Enters shadow 18:21:18 16° 113° (ESE) 1,119 4.6 -10.6°
